Location: Hylvaty SDH
(49.9612°N, 16.4057°E)
Time: 23:08:23
(UTC+01:00)

Courier 1B Rocket - Pass Details

Date: 11 October 2020
Orbit: 920 x 1202 km, 28.2° (Epoch: 30 October)

Event Time Altitude Azimuth Distance (km) Brightness Sun altitude
Exits shadow 04:35:53 11° 180° (S) 2,777 7.2 -25.3°
Drops below altitude 10° 04:37:13 10° 168° (SSE) 2,824 7.3 -25.1°
Sets 04:42:23 0° 135° (SE) 3,696 8.4 -24.3°
